Weather History for Aberdeen, SD

Change the Weather History Date:

Thursday, January 17, 2013

  Actual Average Record
Temperature  
Mean Temperature 19 °F 12 °F  
Max Temperature 28 °F 22 °F 48 °F (1947)
Min Temperature 9 °F 1 °F -32 °F (1997)
Degree Days  
Heating Degree Days 46 53  
Month to date heating degree days 825 901  
Since 1 July heating degree days 4249 4392  
Cooling Degree Days 0 0  
Month to date cooling degree days 0 0  
Year to date cooling degree days 0 0  
Moisture  
Dew Point 13 °F    
Average Humidity 75    
Maximum Humidity 84    
Minimum Humidity 66    
Precipitation  
Precipitation 0.00 in 0.01 in 0.60 in (1897)
Month to date precipitation 0.08 0.28  
Year to date precipitation 0.08 0.28  
Snow  
Snow 0.00 in - - ()
Month to date snowfall 1.3  
Since 1 July snowfall 15.2  
Snow Depth 1.00 in    
Sea Level Pressure  
Sea Level Pressure 30.32 in    
Wind  
Wind Speed 6 mph (SE)    
Max Wind Speed 13 mph    
Max Gust Speed 16 mph    
Visibility 10 miles    
Events      
T = Trace of Precipitation, MM = Missing Value Source: NWS Daily Summary

Daily Weather History Graph

Daily Weather History Graph

Search for Another Location

Airport:

Trip Planner

Search our weather history database for the weather conditions in past years. The results will help you decide how hot, cold, wet, or windy it might be!

Date:

Astronomy

Jan. 17, 2013 Rise Set
Actual Time 8:08 AM CST 5:19 PM CST
Civil Twilight 7:35 AM CST 5:52 PM CST
Nautical Twilight 6:58 AM CST 6:29 PM CST
Astronomical Twilight 6:23 AM CST 7:04 PM CST
Moon 10:54 AM CST (1/17) No Moon Set
Length of Visible Light 10h 17m
Length of Day
9h 11m
Waxing Crescent, 38% of the Moon is Illuminated
Jan 17
Waxing Crescent
Jan 18
First Quarter
Jan 26
Full
Feb 3
Last Quarter
Feb 10
New

Hourly Weather History & Observations

Time (CST) Temp. Windchill Dew Point Humidity Pressure Visibility Wind Dir Wind Speed Gust Speed Precip Events Conditions
12:53 AM 10.4 °F 4.0 °F 1.4 °F 67% 30.27 in 10.0 mi SE 3.5 mph - N/A   Overcast
1:24 AM 10.4 °F 4.0 °F 1.4 °F 67% 30.29 in 10.0 mi South 3.5 mph - N/A   Overcast
1:33 AM 10.4 °F - 1.4 °F 67% 30.30 in 10.0 mi Calm Calm - N/A   Overcast
1:53 AM 10.0 °F 1.8 °F 1.9 °F 70% 30.37 in 10.0 mi South 4.6 mph - N/A   Overcast
2:04 AM 10.4 °F -0.4 °F 1.4 °F 67% 30.29 in 10.0 mi South 6.9 mph - N/A   Overcast
2:13 AM 10.4 °F -0.4 °F 1.4 °F 67% 30.28 in 10.0 mi South 6.9 mph - N/A   Overcast
2:42 AM 10.4 °F 0.8 °F 3.2 °F 73% 30.29 in 10.0 mi SSE 5.8 mph - N/A   Overcast
2:53 AM 10.0 °F -1.9 °F 3.0 °F 73% 30.38 in 10.0 mi SSE 8.1 mph - N/A   Overcast
3:53 AM 12.0 °F -1.3 °F 5.0 °F 73% 30.38 in 10.0 mi South 10.4 mph - N/A   Overcast
4:27 AM 12.2 °F -1.0 °F 5.0 °F 73% 30.29 in 10.0 mi South 10.4 mph - N/A   Overcast
4:53 AM 12.0 °F 0.5 °F 5.0 °F 73% 30.37 in 10.0 mi SSW 8.1 mph - N/A   Mostly Cloudy
5:53 AM 12.9 °F 1.6 °F 6.1 °F 74% 30.38 in 10.0 mi SSW 8.1 mph - N/A   Overcast
6:53 AM 12.9 °F - 6.1 °F 74% 30.38 in 10.0 mi Calm Calm - N/A   Scattered Clouds
7:53 AM 15.1 °F - 8.1 °F 74% 30.40 in 10.0 mi Calm Calm - N/A   Overcast
8:05 AM 15.8 °F 10.2 °F 8.6 °F 73% 30.32 in 10.0 mi South 3.5 mph - N/A   Overcast
8:53 AM 17.1 °F - 10.9 °F 77% 30.43 in 10.0 mi Calm Calm - N/A   Overcast
9:53 AM 19.0 °F - 12.9 °F 77% 30.44 in 10.0 mi Calm Calm - N/A   Overcast
10:53 AM 21.9 °F - 16.0 °F 78% 30.47 in 10.0 mi Calm Calm - N/A   Overcast
11:53 AM 26.1 °F 20.5 °F 19.9 °F 78% 30.44 in 10.0 mi NE 4.6 mph - N/A   Scattered Clouds
12:53 PM 26.1 °F 17.6 °F 19.0 °F 75% 30.41 in 10.0 mi NE 8.1 mph - N/A   Scattered Clouds
1:53 PM 26.1 °F 18.4 °F 19.0 °F 75% 30.41 in 10.0 mi NE 6.9 mph - N/A   Overcast
2:53 PM 25.0 °F 19.3 °F 18.0 °F 75% 30.40 in 10.0 mi ENE 4.6 mph - N/A   Mostly Cloudy
3:22 PM 24.8 °F 17.9 °F 17.6 °F 74% 30.31 in 10.0 mi East 5.8 mph - N/A   Overcast
3:53 PM 25.0 °F 18.1 °F 18.0 °F 75% 30.39 in 10.0 mi East 5.8 mph - N/A   Overcast
4:35 PM 24.8 °F 15.3 °F 17.6 °F 74% 30.30 in 10.0 mi East 9.2 mph - N/A   Overcast
4:53 PM 23.0 °F 13.1 °F 17.1 °F 78% 30.37 in 10.0 mi East 9.2 mph - N/A   Overcast
5:19 PM 23.0 °F 13.1 °F 17.6 °F 80% 30.29 in 10.0 mi East 9.2 mph - N/A   Overcast
5:53 PM 23.0 °F 14.7 °F 17.1 °F 78% 30.35 in 10.0 mi ESE 6.9 mph - N/A   Overcast
6:53 PM 23.0 °F 15.8 °F 18.0 °F 81% 30.31 in 10.0 mi ESE 5.8 mph - N/A   Overcast
7:53 PM 25.0 °F 17.1 °F 19.9 °F 81% 30.29 in 10.0 mi SE 6.9 mph - N/A   Overcast
8:53 PM 26.1 °F 16.8 °F 21.0 °F 81% 30.23 in 10.0 mi SE 9.2 mph - N/A   Overcast
9:11 PM 26.6 °F 16.8 °F 21.2 °F 80% 30.15 in 10.0 mi SSE 10.4 mph - N/A   Overcast
9:45 PM 26.6 °F 17.5 °F 21.2 °F 80% 30.13 in 10.0 mi SSE 9.2 mph - N/A   Overcast
9:53 PM 26.1 °F 16.2 °F 21.0 °F 81% 30.18 in 10.0 mi SSE 10.4 mph - N/A   Mostly Cloudy
10:53 PM 27.0 °F 18.0 °F 23.0 °F 85% 30.13 in 10.0 mi South 9.2 mph - N/A   Overcast
11:53 PM 28.0 °F 18.6 °F 24.1 °F 85% 30.07 in 10.0 mi South 10.4 mph - N/A   Overcast